TimeCDT,TemperatureF,Dew PointF,Humidity,Sea Level PressureIn,VisibilityMPH,Wind Direction,Wind SpeedMPH,Gust SpeedMPH,PrecipitationIn,Events,Conditions,WindDirDegrees,DateUTC
12:52 AM,21.0,16.0,81,30.30,10.0,North,-9999.0,-,N/A,,Clear,0,2012-10-07 05:52:00
1:52 AM,23.0,17.1,78,30.30,10.0,WNW,6.9,-,N/A,,Clear,290,2012-10-07 06:52:00
2:52 AM,19.9,16.0,85,30.29,10.0,West,5.8,-,N/A,,Clear,280,2012-10-07 07:52:00
3:52 AM,18.0,15.1,88,30.27,10.0,WSW,5.8,-,N/A,,Clear,250,2012-10-07 08:52:00
4:52 AM,19.9,16.0,85,30.26,10.0,WSW,4.6,-,N/A,,Clear,240,2012-10-07 09:52:00
5:52 AM,17.1,14.0,88,30.25,10.0,WSW,6.9,-,N/A,,Clear,240,2012-10-07 10:52:00
6:52 AM,21.0,16.0,81,30.25,10.0,SW,5.8,-,N/A,,Clear,220,2012-10-07 11:52:00
7:52 AM,21.9,17.1,82,30.24,10.0,SW,6.9,-,N/A,,Clear,220,2012-10-07 12:52:00
8:52 AM,32.0,23.0,69,30.24,10.0,SW,8.1,-,N/A,,Clear,230,2012-10-07 13:52:00
9:52 AM,37.9,21.9,53,30.22,10.0,WSW,16.1,-,N/A,,Clear,240,2012-10-07 14:52:00
10:52 AM,43.0,21.9,43,30.22,10.0,WSW,15.0,-,N/A,,Clear,240,2012-10-07 15:52:00
11:52 AM,48.0,19.9,33,30.18,10.0,SW,16.1,-,N/A,,Clear,220,2012-10-07 16:52:00
12:52 PM,51.1,19.0,28,30.14,10.0,SW,15.0,21.9,N/A,,Clear,230,2012-10-07 17:52:00
1:52 PM,53.1,19.9,27,30.10,10.0,WSW,21.9,29.9,N/A,,Clear,240,2012-10-07 18:52:00
2:52 PM,54.0,19.9,26,30.07,10.0,WSW,24.2,27.6,N/A,,Clear,240,2012-10-07 19:52:00
3:52 PM,55.0,19.9,25,30.04,10.0,SW,20.7,26.5,N/A,,Clear,230,2012-10-07 20:52:00
4:52 PM,54.0,21.9,29,30.02,10.0,SSW,17.3,25.3,N/A,,Clear,210,2012-10-07 21:52:00
5:52 PM,54.0,19.9,26,30.00,10.0,SW,15.0,20.7,N/A,,Clear,230,2012-10-07 22:52:00
6:52 PM,48.0,19.9,33,29.99,10.0,SSW,8.1,-,N/A,,Clear,210,2012-10-07 23:52:00
7:52 PM,41.0,19.0,41,29.99,10.0,South,9.2,-,N/A,,Clear,180,2012-10-08 00:52:00
8:52 PM,37.9,19.9,48,29.98,10.0,South,10.4,-,N/A,,Clear,180,2012-10-08 01:52:00
9:52 PM,37.9,19.9,48,29.97,10.0,South,10.4,-,N/A,,Clear,190,2012-10-08 02:52:00
10:52 PM,45.0,23.0,42,29.95,10.0,SSW,18.4,26.5,N/A,,Clear,210,2012-10-08 03:52:00
11:52 PM,43.0,24.1,47,29.93,10.0,SSW,15.0,-,N/A,,Clear,210,2012-10-08 04:52:00